sat.trackr.live / text

‹ back to catalog

STARLINK-31903

NORAD 59845 · 2024-097L

PAYLOAD ACTIVE UNKNOWN

§ Identity

Operator
Country
US
Launch date
2024-05-23
Launch site
AFETR
Launch vehicle
Mass (kg)
RCS (m²)

Purposes: comms

External: N2YO · Heavens-Above · Gunter

§ Orbital elements

Epoch: 2026-05-24T20:07:46.401600Z

Period
94.27 min
Inclination
43.0007°
Eccentricity
0.0001562
Mean motion
15.27578203 rev/d
Perigee alt
482.0 km
Apogee alt
484.1 km
Semi-major
6,861.2 km
B*
-3.4858e-5
RAAN
197.3106°
Arg perigee
272.0413°
Mean anomaly
88.0260°
Rev number
11,364

§ Raw data

STARLINK-319031 59845U 24097L   26144.83873150 -.00001221  00000+0 -34858-4 0  99942 59845  43.0007 197.3106 0001562 272.0413  88.0260 15.27578203113646

JSON: /api/v1/satellites/59845 · /tle

For live sub-satellite position, see the globe view (requires WebGL).

§ Visibility from observer

Set your observer location to see the next 7 days of passes ≥ 10°. The values pass through the URL so the page stays shareable.

No JS? Fill the form by hand. The geolocation button needs JavaScript.